Regional Weather Roundup
Issued by NWS Cleveland, OH

Home | Current Version | Previous Version | Text Only | Print | Product List | Glossary Off
Versions: 1 2 3 4 5 6 7 8 9 10 11 12 13 14 15 16 17 18 19 20 21 22 23 24 25 26 27 28 29 30 31 32 33 34 35 36 37 38 39 40 41 42 43 44 45 46 47 48 49 50

000
ASUS41 KCLE 251700
RWRCLE
OHIO REGIONAL WEATHER ROUNDUP
NATIONAL WEATHER SERVICE WILMINGTON, OH
1200 PM EST TUE NOV 25 2014

NOTE: "FAIR" INDICATES FEW OR NO CLOUDS BELOW 12,000 FEET WITH NO
SIGNIFICANT WEATHER AND/OR OBSTRUCTIONS TO VISIBILITY.

OHZ001>008-015>018-024>027-034-035-043-044-251800-
   NORTHWEST OHIO

CITY           SKY/WX    TMP DP  RH WIND       PRES   REMARKS
DEFIANCE       NOT AVBL
FINDLAY        CLOUDY    34  27  75 W21G26    30.05R WCI  22
TOLEDO EXPRESS CLOUDY    31  24  75 W20G26    30.04R WCI  19
TOLEDO METCALF CLOUDY    33  24  69 SW21      30.05R WCI  21
LIMA           CLOUDY    34  27  75 W17       30.07R WCI  23
$$

OHZ009>014-019>023-028>033-038-089-251800-
   NORTHEAST OHIO

CITY           SKY/WX    TMP DP  RH WIND       PRES   REMARKS
CLE-HOPKINS    CLOUDY    36  25  64 SW17G26   30.05R
CLE-LAKEFRONT  CLOUDY    37  26  64 SW26G36   30.02R
CUY CO. ARPT   NOT AVBL
LORAIN-ELYRIA  CLOUDY    35  26  69 W16       30.04R WCI  25
ASHTABULA      CLOUDY    39  28  64 SW14      30.00R
AKRON-CANTON   PTSUNNY   38  26  62 SW16G23   30.02S
WOOSTER        NOT AVBL
MANSFIELD      CLOUDY    35  26  69 SW16G25   30.04R WCI  25
YOUNGSTOWN     PTSUNNY   40  28  62 W14       30.00F
$$

OHZ042-051>053-060>062-070>072-077>081-251800-
  SOUTHWEST OHIO

CITY           SKY/WX    TMP DP  RH WIND       PRES   REMARKS
CINC-COVINGTON MOSUNNY   42  27  55 W10       30.11R
CINC-LUNKEN    MOSUNNY   41  28  60 W16       30.13S
HAMILTON       CLOUDY    43  28  55 SW9G20    30.12S
DAYTON         NOT AVBL
WRIGHT-PAT AFB CLOUDY    39  28  65 SW14G22   30.10R
DAYTON GENERAL CLOUDY    38  26  62 SW14G23   30.09R
WILMINGTON     PTSUNNY   39  27  62 W15       30.09S
$$

OHZ036-037-039>041-045>050-054>059-063>069-073>076-082>088-251800-
  CENTRAL AND SOUTHEAST OHIO

CITY           SKY/WX    TMP DP  RH WIND       PRES   REMARKS
COLUMBUS       CLOUDY    38  27  64 SW15      30.09R
OSU AIRPORT    CLOUDY    38  26  62 W13G22    30.08S
BOLTON FIELD   CLOUDY    37  28  70 SW13      30.10R
RICKENBACK AFB NOT AVBL
NEWARK         CLOUDY    39  28  64 W10       30.08R
MARION         CLOUDY    36  25  64 W15       30.06R
LANCASTER      CLOUDY    39  28  64 W14       30.10R
ZANESVILLE     MOSUNNY   42  28  57 W12       30.07S
NEW PHILLY     CLOUDY    42  28  57 W13G21    30.06S
$$



USA.gov is the U.S. government's official web portal to all federal, state and local government web resources and services.